Powrót do katalogu

KITA-53

AktywnySSO
NORAD 69904·PAYLOAD·🇺🇸 United States

Wystrzelony Jul 7, 2026 z Vandenberg Space Force Base

Loading…

Następne Przeloty (najbliższe 24 godziny)

TLE

ŚwieżeSource: Space-Track

Epoka: Sep 14, 2026, 12:05 UTC

1 69904U 26156AM  26257.50352558  .00000844  00000-0  89434-4 0  9991
2 69904  97.7433 156.7636 0004639 281.0282  79.0415 14.91701155 10205

Śledź KITA-53 w czasie rzeczywistym z AllMySat

Download on the App Store